Location: Cahas Mountain Overlook
(37.0833°N, 80.1000°W)
Time: 10:56:39
(UTC-04:00)

Vanguard 1 Rocket - Pass Details

Date: 17 February 2026
Orbit: 653 x 4214 km, 34.3° (Epoch: 15 March)

Event Time Altitude Azimuth Distance (km) Brightness Sun altitude
Rises 19:50:35 0° 285° (WNW) 6,699 13.2 -22.2°
Reaches altitude 10° 19:54:41 10° 280° (W) 6,073 12.7 -23.0°
Maximum altitude 20:14:13 46° 215° (SW) 4,882 11.1 -26.9°
Drops below altitude 10° 20:37:45 10° 151° (SSE) 7,094 11.6 -31.5°
Enters shadow 20:40:40 - 147° (SSE) 7,489 11.7 -32.1°
